Theta_e
292 293 293 294 296 297 297 297 296 297 296 296 295 295 294 294 294 294 294 293 295 296 304 309 310 309 309 307 308 308 308 307 306 308 306 307 306 307 306 306 306 306 305 304 304 303 305 305 305 305 302 299 298 298 297 299 299 299 300 300 299 300 299 298 295 291 292 295 293 293 293 293 292 294 293 294 295 296 295 300 301 301 301 302 301
288 290 292 293 294 295 297 297 297 296 296 295 295 295 294 294 294 293 292 293 294 294 298 309 309 310 309 308 308 307 307 306 306 306 306 306 304 305 303 303 304 305 306 303 303 302 303 303 304 303 300 299 298 297 298 297 298 298 298 299 298 299 299 298 294 291 290 292 292 292 292 293 292 293 292 292 293 293 294 294 295 297 299 300 301
284 287 290 292 293 294 294 296 296 296 295 295 295 295 295 295 295 293 292 293 293 294 295 303 310 310 309 309 308 307 306 305 306 306 306 305 303 304 303 302 303 304 304 304 304 303 301 300 301 301 298 299 299 298 297 297 297 297 297 298 298 298 298 298 295 292 291 291 292 290 291 292 292 291 292 293 293 293 292 293 293 293 294 298 299
282 284 288 290 293 294 294 295 295 296 295 295 295 296 295 295 295 293 293 293 292 293 294 296 307 309 308 308 308 307 305 305 305 305 305 304 305 304 303 302 303 304 305 304 304 303 302 300 300 299 298 297 298 298 297 297 297 297 297 297 297 298 297 297 295 294 292 290 290 290 291 292 292 292 292 292 292 292 293 293 292 291 292 294 296
279 281 283 285 288 291 292 293 294 294 295 295 295 296 295 294 294 293 292 291 291 292 293 294 301 308 307 307 307 307 305 304 304 304 305 306 305 305 303 303 303 304 305 304 301 303 303 302 301 299 297 298 297 298 297 295 295 296 296 297 297 297 298 297 296 295 293 291 290 291 292 292 292 292 291 291 291 291 291 291 291 292 292 293 293
278 280 281 281 282 285 288 290 292 293 294 295 295 296 295 294 293 293 292 290 290 291 292 292 296 307 307 307 307 306 306 304 304 304 305 306 306 305 303 303 305 305 305 304 303 303 303 303 303 301 299 299 298 299 297 296 296 296 295 296 296 296 295 295 297 294 293 291 291 291 291 291 290 290 291 291 291 290 290 290 291 291 291 291 293
277 278 278 279 280 282 284 287 290 292 293 294 295 296 295 294 293 292 292 290 289 288 290 291 294 304 306 307 307 306 306 304 304 304 305 306 305 305 305 304 304 305 304 303 303 303 303 303 303 302 301 300 300 299 298 297 297 297 297 297 296 296 296 296 295 293 292 291 291 292 291 291 290 289 290 291 291 290 289 289 288 291 291 291 290
275 276 276 276 277 278 280 284 287 290 293 293 294 295 295 293 292 293 291 289 288 288 289 290 293 301 305 306 307 306 306 304 304 304 304 305 304 304 304 304 303 303 303 302 302 302 303 303 303 302 301 300 300 300 299 298 299 296 297 297 296 294 294 294 293 293 291 291 290 290 290 290 290 290 290 290 290 289 291 290 288 288 290 291 292
275 275 276 276 276 276 276 278 280 282 286 290 292 292 293 293 293 292 290 289 288 288 289 291 291 298 304 305 305 306 305 304 304 304 303 303 303 302 302 302 302 302 303 303 302 301 301 302 302 301 298 296 296 296 298 297 298 296 296 294 292 293 293 293 293 292 291 291 290 292 290 290 290 289 287 288 288 288 290 291 290 290 291 291 292
274 274 274 275 276 277 277 276 277 279 282 284 287 289 291 292 291 290 290 289 288 287 288 290 292 297 304 303 303 304 304 306 300 299 300 302 302 301 300 300 301 301 300 301 301 301 301 301 301 295 293 293 293 294 296 295 295 297 296 294 292 292 292 292 292 292 291 290 290 290 289 289 289 289 288 289 291 291 290 291 289 289 290 290 291
274 274 274 275 276 276 276 276 276 276 279 281 284 285 287 289 290 289 289 289 288 287 288 289 291 297 304 303 302 303 304 305 299 300 300 300 303 302 298 297 297 299 299 300 299 299 299 299 300 295 293 292 293 293 295 295 294 295 294 293 293 293 292 291 292 292 291 291 291 290 289 288 289 290 290 290 291 291 290 291 291 290 288 286 285
273 274 275 275 276 276 276 276 276 276 278 279 281 283 285 286 288 288 288 288 288 288 288 289 292 298 304 304 303 302 303 300 299 300 300 300 300 301 300 298 297 298 298 299 299 298 298 298 298 298 296 295 296 295 294 293 294 294 293 293 293 293 294 293 292 292 291 291 290 289 290 290 290 291 290 290 290 290 291 291 291 288 288 287 288
272 273 274 275 275 276 276 276 276 276 277 278 281 282 283 285 286 287 287 288 289 288 288 289 292 297 302 303 302 301 302 299 299 299 299 299 299 301 301 298 297 296 298 298 298 298 298 296 296 297 297 291 292 295 294 293 292 293 292 292 292 293 294 295 294 293 293 292 291 290 291 291 290 291 290 290 290 289 288 288 290 289 289 288 288
272 272 274 275 275 276 276 276 276 276 277 278 280 281 282 284 286 287 288 288 288 289 288 289 291 295 300 302 302 302 302 298 299 299 299 299 299 300 299 297 297 297 298 298 298 298 296 295 295 295 295 293 293 294 294 293 292 291 291 292 292 292 293 293 293 292 292 293 293 290 293 293 292 291 291 291 289 288 288 288 288 288 287 288 290
271 272 273 274 275 276 276 276 276 276 277 278 280 282 283 284 286 287 288 288 288 288 289 289 291 293 296 299 300 299 301 298 299 298 298 299 299 299 300 298 298 297 296 297 298 297 297 297 296 295 295 294 293 293 293 291 290 290 289 289 290 292 294 295 296 295 294 295 294 294 294 295 295 294 292 291 290 290 290 289 288 288 288 286 286
270 271 272 274 275 275 276 276 276 277 276 277 280 282 284 285 285 287 287 289 290 290 290 290 291 292 294 296 298 298 299 298 298 298 298 299 299 298 299 296 296 296 296 295 296 298 297 296 297 296 295 294 292 292 292 291 289 289 288 288 289 291 294 294 294 294 295 296 296 295 295 295 295 292 291 291 290 291 290 289 287 286 286 287 285
269 270 271 273 274 275 276 276 276 276 277 277 279 282 284 285 286 288 288 289 289 289 290 291 292 292 292 293 296 297 297 296 297 297 298 298 298 298 297 297 297 295 295 295 294 294 295 295 296 297 295 294 292 293 293 291 289 289 289 288 289 289 291 293 293 293 294 294 295 295 295 295 295 294 294 293 291 290 290 288 286 287 287 285 285
268 269 269 271 273 275 276 276 275 276 277 278 279 282 285 287 287 289 288 288 289 289 290 291 292 292 292 293 294 295 295 295 296 297 297 298 297 297 298 297 296 295 295 295 296 295 294 291 292 295 295 295 292 293 293 290 289 289 288 288 288 288 289 291 292 292 292 292 292 292 293 294 293 294 294 293 292 290 288 287 287 288 287 287 285
267 267 268 269 270 272 274 275 276 276 277 279 280 281 285 287 289 289 289 289 289 290 291 292 292 293 292 293 292 294 294 294 296 296 297 297 296 297 298 298 296 295 296 295 295 296 295 292 291 293 295 294 293 293 293 291 289 289 289 288 288 287 289 289 289 289 289 289 290 291 290 290 291 291 291 292 291 289 290 289 288 288 287 287 287
267 267 267 268 269 271 273 274 276 276 277 278 281 283 286 288 288 288 289 290 290 291 291 292 292 293 293 292 292 294 294 293 293 296 296 297 297 297 299 297 295 295 296 297 295 294 295 294 292 293 295 295 294 294 293 292 290 289 289 289 288 288 290 288 289 290 289 288 288 288 288 288 288 289 290 290 290 288 290 290 289 288 287 287 288
266 266 267 267 268 269 272 274 275 277 278 279 280 284 287 288 288 288 288 289 289 290 290 292 292 292 294 292 293 293 294 293 292 295 296 297 297 297 297 297 297 296 296 295 296 295 296 295 294 293 294 294 294 294 293 293 292 290 290 290 290 291 291 289 288 288 288 288 288 288 288 288 288 289 288 289 289 289 289 289 289 289 288 288 288
265 265 266 266 267 268 270 273 276 278 280 281 281 282 286 288 287 287 288 288 289 289 290 291 292 292 293 292 293 293 294 293 294 294 296 296 297 296 297 296 297 296 295 295 296 296 296 296 295 293 293 293 293 293 294 293 293 290 291 293 293 293 290 290 289 289 289 288 288 288 288 288 287 288 288 289 288 288 288 288 289 289 292 292 288
264 265 265 266 267 269 271 273 276 279 280 282 282 282 284 286 286 287 287 287 288 288 289 290 291 291 292 293 294 294 294 293 293 293 295 296 296 296 297 296 296 295 296 294 294 296 296 296 295 291 292 293 293 293 294 294 292 291 293 293 293 292 291 291 289 289 288 287 287 287 287 288 287 287 287 288 289 288 288 288 288 288 289 290 289
264 264 265 266 267 269 271 274 278 280 281 282 282 283 283 285 286 287 287 288 288 288 289 289 290 290 291 292 293 294 295 295 293 293 293 295 296 296 297 297 296 295 295 296 296 296 295 294 294 292 292 293 293 293 293 293 291 293 293 293 292 291 290 290 289 289 287 287 287 287 287 288 288 287 287 288 288 288 287 286 286 286 287 287 286
263 264 264 266 268 270 272 274 278 282 283 284 284 284 285 285 286 287 287 288 288 289 289 290 290 290 291 291 292 293 294 294 294 292 292 294 295 296 296 296 296 296 294 295 294 296 294 294 293 292 292 293 293 293 293 292 292 292 292 292 291 291 290 289 289 289 288 287 287 287 287 288 289 288 289 288 288 287 286 285 285 285 284 284 284
263 263 265 266 268 270 272 274 278 282 283 284 285 285 285 285 285 286 287 288 289 289 289 290 290 290 291 291 291 292 292 293 293 293 291 292 293 295 295 295 295 294 293 294 293 294 294 293 293 292 292 292 292 292 291 292 292 292 291 291 291 291 290 289 288 288 288 288 287 287 287 288 288 289 288 287 286 285 284 283 283 282 283 283 283
263 264 265 267 269 270 272 275 278 282 284 285 285 285 286 286 286 286 287 288 288 289 289 289 289 290 290 291 291 291 291 292 292 291 291 292 293 293 294 294 293 293 292 293 292 293 292 292 292 292 292 291 291 292 291 291 291 291 291 291 291 291 290 289 289 289 289 289 288 288 288 288 288 286 285 285 285 285 284 283 282 282 283 284 283
263 264 265 267 269 272 274 277 279 281 284 285 286 286 287 287 287 287 287 288 288 288 289 289 289 290 290 291 291 291 290 291 291 291 291 292 292 293 293 293 294 294 294 293 292 292 292 291 292 291 291 290 291 291 291 291 291 291 291 291 291 290 289 289 289 290 290 290 290 289 287 286 284 284 284 284 284 283 283 283 282 282 282 283 282
264 265 267 269 271 273 275 277 279 281 283 285 286 287 287 287 287 288 289 289 289 289 289 290 290 290 291 291 290 290 290 290 290 292 291 292 291 292 292 293 294 294 293 293 289 289 289 290 290 289 289 289 289 290 290 290 290 290 290 290 290 289 289 288 287 288 289 288 288 286 284 284 284 283 283 283 282 282 283 283 283 282 282 283 282
264 266 268 269 271 273 275 278 279 281 282 283 285 287 287 288 289 288 288 289 289 291 291 290 291 291 291 291 291 291 290 291 291 292 292 292 293 293 293 294 294 293 292 292 290 289 289 288 288 288 288 288 289 289 289 290 289 289 289 289 289 288 288 288 288 288 288 288 287 285 283 283 283 282 282 282 282 282 282 283 282 282 281 281 281
264 265 266 267 269 271 274 277 280 281 282 283 284 285 286 288 289 289 289 289 289 290 291 291 292 292 291 291 291 292 292 291 292 292 292 292 292 293 293 293 293 293 292 289 289 289 288 288 288 288 288 289 289 289 289 289 289 289 289 289 289 288 287 287 287 288 287 287 286 285 284 283 282 282 282 282 280 280 281 282 281 280 280 281 281
263 264 265 266 268 269 271 273 276 278 281 284 285 285 286 286 288 289 289 289 289 290 290 291 291 291 292 291 290 290 290 291 292 291 291 291 292 292 293 293 293 293 292 292 290 290 290 289 289 289 289 288 289 289 289 289 289 289 289 288 288 288 287 287 287 287 287 286 285 284 283 283 282 282 282 281 280 279 279 280 279 279 279 280 280
262 263 264 265 266 267 269 269 271 273 275 278 281 284 285 286 286 287 289 289 289 290 290 291 291 291 291 291 291 291 290 290 291 291 291 291 291 292 292 293 293 293 292 291 290 290 290 290 290 289 289 289 289 289 289 289 289 289 289 288 288 287 287 288 287 287 286 286 284 283 283 282 281 281 281 281 279 277 279 279 279 279 279 278 279
262 263 264 264 265 265 266 267 268 269 271 274 277 280 282 284 286 286 286 287 288 289 290 291 292 292 292 292 291 291 291 290 291 291 290 291 291 291 292 291 293 293 291 290 290 290 290 290 290 289 289 289 289 289 288 289 289 289 288 288 288 288 287 288 286 286 285 285 284 283 282 281 281 281 280 280 278 278 278 278 278 277 278 278 278
262 264 266 265 264 264 265 265 266 267 268 270 272 276 278 280 283 285 286 286 286 286 287 288 289 291 290 290 291 291 290 290 290 290 290 290 291 291 292 290 290 290 290 290 290 291 290 289 289 289 289 288 288 288 288 288 288 288 288 287 287 287 286 286 285 285 285 284 284 283 282 281 280 280 280 278 277 276 276 277 277 277 277 277 277
261 262 262 263 263 263 263 264 264 265 266 267 269 271 273 274 275 277 279 282 283 284 284 285 285 286 288 289 290 290 290 290 290 290 290 291 291 292 289 289 289 289 289 290 289 290 290 289 289 289 288 288 288 288 288 288 288 288 288 287 287 286 285 285 285 285 284 284 283 283 282 281 280 280 280 278 277 277 276 277 277 277 278 277 277
260 261 262 263 263 262 262 263 263 264 266 266 266 267 268 268 269 269 270 270 272 272 271 273 275 276 279 283 286 289 290 291 291 291 291 292 292 290 290 289 289 289 289 289 289 289 289 289 289 289 288 288 288 288 288 288 288 288 288 287 287 286 286 285 285 284 284 284 283 282 281 281 280 280 278 277 277 277 277 277 277 277 277 277 277
260 260 261 262 262 262 261 261 262 264 263 263 263 264 264 264 264 265 265 265 266 266 266 267 269 269 269 272 281 283 286 288 290 290 290 291 289 289 289 289 289 288 288 288 289 289 289 289 288 288 288 288 288 288 288 288 288 288 287 287 287 286 285 285 285 284 284 284 283 282 281 281 280 279 279 278 278 276 276 276 276 276 276 276 277
259 262 264 264 264 261 260 261 261 261 261 261 261 262 262 262 262 262 262 261 261 261 263 264 265 266 266 268 270 272 270 267 267 267 268 268 269 271 276 283 287 288 288 288 288 288 288 287 287 287 287 287 287 287 287 288 288 287 287 287 286 286 284 284 284 283 283 283 283 283 281 280 280 279 279 278 277 277 277 276 276 276 275 275 276
258 259 261 264 261 260 260 260 260 260 260 260 260 260 260 260 260 260 260 260 259 260 259 260 262 264 265 266 265 265 263 262 262 262 263 263 264 265 267 268 270 276 283 285 286 286 285 285 286 286 286 286 286 286 287 287 287 287 286 286 285 285 284 284 283 283 283 283 282 281 280 279 279 279 278 278 277 277 276 276 276 276 276 275 275
258 259 260 261 261 259 259 259 259 259 259 260 259 259 259 259 259 259 259 258 259 258 258 258 259 262 265 266 268 265 260 259 259 260 260 260 261 261 262 263 265 266 268 271 275 279 280 281 282 283 283 284 285 285 286 286 286 286 285 285 285 284 284 284 283 283 283 282 281 279 279 279 278 278 277 277 278 277 276 276 275 275 275 276 275
257 258 258 258 259 259 258 258 258 259 259 259 258 258 258 258 258 258 258 258 258 258 257 257 257 259 264 268 266 265 259 258 258 258 258 258 258 259 259 260 261 261 263 264 266 268 270 270 271 272 274 277 280 282 282 283 283 283 283 283 283 283 282 282 282 282 282 281 280 279 278 278 277 277 277 278 277 276 276 276 275 275 275 275 275
257 257 257 258 258 258 257 257 258 258 257 257 257 259 258 258 257 257 257 257 257 257 256 256 256 257 259 263 262 262 257 257 258 257 257 257 257 257 257 257 258 259 260 262 264 266 266 266 266 266 267 268 269 272 275 278 281 282 281 281 281 280 280 281 281 281 281 280 280 279 278 278 277 277 278 277 277 277 276 275 275 275 274 275 274
256 256 256 257 257 257 257 257 257 257 257 258 258 257 257 257 257 256 256 256 256 256 255 255 256 256 256 257 257 256 256 256 256 256 256 256 256 256 256 256 257 258 258 260 262 263 264 265 265 266 266 267 267 268 268 270 272 275 278 279 279 279 280 280 280 280 280 280 279 278 278 278 277 277 277 277 277 276 276 275 275 274 274 274 274
254 255 255 255 255 255 255 256 256 256 257 256 256 256 256 256 256 256 256 255 255 255 255 255 255 255 255 255 255 255 255 255 255 255 255 255 255 255 256 256 256 256 257 259 261 261 261 263 264 264 264 265 266 266 267 267 268 269 270 272 272 271 271 273 275 277 278 279 278 277 277 276 276 276 276 276 276 276 276 275 275 275 274 273 273
253 254 254 253 253 254 254 254 255 255 255 255 255 255 255 255 255 255 255 255 255 255 255 255 255 254 254 254 254 255 254 254 254 255 255 255 255 255 255 255 256 257 257 258 259 260 260 261 262 262 263 264 265 266 266 267 267 267 267 268 268 269 270 272 273 273 273 274 274 274 274 273 274 274 273 274 274 274 274 274 274 273 273 273 273
252 253 253 253 252 253 253 253 254 254 254 254 254 254 254 254 254 254 255 254 254 254 254 254 254 254 254 254 254 254 254 254 254 254 254 254 254 254 255 255 256 257 257 257 258 259 259 259 260 261 262 263 264 264 265 266 266 267 267 267 267 268 269 270 271 272 272 273 273 272 272 271 271 271 271 271 271 271 271 271 271 271 271 271 271
252 252 252 252 252 251 251 251 252 253 252 253 253 253 253 253 253 253 253 253 253 253 253 253 253 253 253 253 253 253 253 253 253 254 253 254 254 254 254 254 254 255 256 256 257 257 258 258 259 260 261 261 262 263 264 265 266 266 267 267 267 267 268 269 269 270 271 271 271 271 271 271 270 270 270 270 270 270 269 269 270 270 270 270 270
251 251 251 251 251 251 251 250 251 251 251 251 252 252 252 252 252 252 252 252 252 252 252 252 252 253 253 253 253 253 253 253 252 252 253 253 253 254 254 254 254 254 255 255 255 256 257 257 258 259 259 261 261 262 263 265 265 266 266 266 267 268 268 267 268 268 269 270 270 270 270 270 269 269 269 269 269 269 269 269 269 269 269 269 269
251 251 250 250 250 250 250 250 250 250 250 251 251 251 251 251 250 250 250 251 251 251 251 251 251 252 252 252 252 252 252 251 251 252 252 252 253 253 253 254 254 254 254 254 254 254 255 255 256 258 259 260 260 260 262 264 265 266 266 266 268 268 267 266 266 267 268 268 268 269 269 268 268 268 268 269 269 268 268 268 268 268 268 268 268
250 250 250 249 249 250 250 249 249 249 249 249 249 249 250 250 250 250 250 249 250 250 250 250 250 251 251 251 252 251 251 251 251 251 251 251 252 252 252 252 253 253 253 253 254 254 254 254 255 255 257 258 259 260 261 263 265 266 267 268 267 267 267 266 265 265 266 266 267 267 267 267 267 267 267 267 267 267 267 267 267 267 267 267 267
Wind_Speed
22 21 20 19 17 16 14 13 14 12 11 10 11 10 7 6 7 8 10 11 12 16 18 18 19 19 19 17 19 18 19 18 16 17 15 17 14 16 17 18 18 16 16 16 13 13 16 17 17 16 13 14 11 10 11 7 9 9 9 10 10 10 12 11 10 8 5 6 9 9 9 10 7 7 8 6 5 4 6 6 7 6 7 8 8
22 24 21 20 22 19 16 15 14 11 11 11 11 9 7 6 7 8 10 11 10 13 19 19 17 20 20 20 19 19 19 18 17 15 17 19 19 15 17 18 18 17 17 18 16 13 15 16 15 16 13 16 16 15 7 10 9 10 10 11 11 11 11 9 8 11 10 8 8 8 9 10 9 7 9 9 7 5 6 5 3 3 6 8 8
23 23 22 21 22 21 20 16 14 14 14 12 12 10 8 7 6 8 9 11 11 12 15 18 19 19 19 19 18 18 19 19 18 18 18 18 18 17 16 19 18 17 18 15 18 17 16 15 16 14 11 14 15 10 12 9 9 10 11 10 10 9 11 11 9 9 11 10 10 10 10 10 9 10 9 7 7 6 7 6 5 3 2 5 7
19 21 22 23 22 20 21 20 18 16 14 12 12 11 8 7 6 8 8 9 11 13 13 17 18 18 18 18 18 18 20 19 19 18 19 20 20 20 17 18 19 19 19 15 17 18 20 17 17 16 14 15 14 11 9 9 9 10 10 9 10 9 10 8 11 11 9 11 10 11 10 11 9 9 8 8 9 7 6 6 5 4 3 3 6
20 20 21 24 22 20 21 20 21 22 17 13 13 11 8 6 5 8 8 9 11 11 14 14 18 18 18 19 19 19 20 20 20 19 18 17 19 20 19 19 19 19 19 17 17 16 17 20 20 18 17 17 15 15 13 17 14 10 11 10 10 10 11 8 8 10 11 11 11 9 9 8 8 9 9 10 9 7 6 6 7 7 5 4 3
20 20 18 20 21 23 21 20 21 22 21 17 14 12 8 6 6 7 6 10 11 11 13 14 17 18 19 20 19 19 19 20 21 20 20 19 18 19 19 19 17 18 19 14 17 15 17 15 16 19 20 20 18 16 16 18 16 13 15 11 11 12 13 11 8 11 13 11 13 12 10 11 9 8 9 9 11 10 8 6 5 5 7 7 5
20 20 20 20 20 21 21 21 20 21 20 20 14 10 8 6 6 7 7 8 10 10 13 14 16 17 20 20 20 19 19 19 19 20 21 19 18 17 18 19 19 19 12 13 14 15 14 14 17 15 15 16 19 19 18 18 16 17 15 15 14 13 13 12 12 13 12 12 9 12 13 8 10 11 9 9 8 9 10 10 7 7 7 8 8
20 19 19 19 19 20 20 21 21 20 18 16 15 14 9 7 8 7 6 9 10 10 13 14 16 16 17 20 19 17 19 19 19 20 20 20 19 19 18 18 19 19 18 16 14 13 15 14 15 14 16 15 16 14 19 18 15 15 15 13 13 13 13 12 11 10 11 11 12 11 10 13 9 7 8 9 9 8 9 11 12 11 10 9 8
20 20 20 20 19 17 18 18 19 20 21 19 16 16 13 8 7 7 7 8 10 9 12 14 16 19 17 18 19 18 18 18 17 18 19 19 19 18 18 18 18 18 19 18 14 16 14 13 12 12 20 22 26 22 20 18 16 16 14 13 13 14 13 11 10 11 10 10 10 9 10 10 11 12 12 12 15 17 14 11 10 10 9 9 8
21 21 21 20 20 20 18 17 18 20 20 21 20 17 15 11 10 10 9 9 10 11 11 14 16 19 17 17 17 17 17 15 19 27 23 18 18 16 15 16 16 16 15 17 16 15 13 13 16 22 22 23 24 24 23 22 21 18 17 16 17 16 15 14 13 11 11 12 12 12 12 12 12 13 14 16 12 9 10 11 11 11 10 8 6
23 22 23 23 22 20 21 19 17 19 20 19 18 18 18 15 13 12 11 10 11 11 11 14 17 17 18 18 18 18 17 16 25 26 28 28 22 18 16 15 14 14 14 16 16 17 15 16 13 17 19 21 21 25 22 23 23 21 20 20 20 20 18 17 16 16 15 11 12 11 15 18 16 14 14 13 12 14 14 14 11 12 13 14 13
25 25 24 24 22 23 21 20 21 19 20 20 18 17 18 17 15 13 12 12 12 9 12 14 17 17 17 18 20 19 18 21 27 28 29 30 25 19 16 15 16 15 13 14 15 16 17 17 15 13 14 16 15 16 21 23 24 24 23 22 22 21 21 20 19 16 16 16 16 17 17 17 15 12 11 12 13 11 10 12 10 15 13 13 9
25 25 24 24 23 19 20 22 22 20 19 19 17 16 17 18 17 15 15 13 12 11 12 14 17 16 17 18 18 17 16 22 26 28 28 28 29 24 16 16 16 16 16 16 14 14 14 13 14 13 13 21 17 17 16 16 20 24 23 24 23 23 22 21 20 18 18 18 18 18 19 18 17 16 18 20 17 16 14 12 11 12 13 13 10
25 25 24 23 19 22 21 21 19 23 19 19 18 17 17 18 16 14 13 13 13 13 11 15 16 16 16 17 17 16 16 21 27 27 26 27 26 23 15 17 16 17 17 17 15 16 16 15 15 14 10 11 13 16 15 14 14 14 14 15 15 19 21 23 22 21 17 15 17 19 17 15 18 20 21 18 18 17 17 17 15 13 14 14 4
25 24 24 22 21 19 18 20 20 19 19 18 17 16 16 16 15 13 12 13 13 13 12 14 15 14 13 14 15 15 14 24 26 28 28 27 27 24 15 14 14 15 15 15 16 17 18 16 16 16 12 12 15 17 16 14 13 13 14 13 14 15 13 13 12 12 13 12 13 17 15 15 13 18 18 16 21 20 21 22 21 15 9 8 7
24 24 24 22 21 20 20 18 20 20 18 18 18 16 15 14 14 13 12 13 12 12 12 13 14 14 12 12 14 15 14 25 27 27 28 28 27 17 13 14 14 14 14 14 14 14 13 14 15 17 17 17 20 24 20 16 16 17 16 14 13 13 13 15 19 18 14 11 10 12 11 13 10 8 14 16 14 8 9 11 10 12 11 8 6
23 22 22 22 20 19 16 18 19 18 17 17 17 16 14 13 12 10 11 12 12 12 13 12 11 11 11 9 12 13 12 21 26 27 27 28 22 15 14 12 12 13 14 13 13 13 12 14 14 14 16 15 20 25 24 21 16 19 18 16 14 12 12 12 15 17 17 18 18 16 13 15 15 18 20 17 13 12 10 9 11 11 10 11 8
22 22 22 22 22 20 18 18 19 18 17 17 16 15 13 12 11 9 10 11 11 12 11 11 10 9 11 12 11 12 11 18 26 26 28 28 23 16 14 13 13 13 12 12 11 12 15 19 13 11 13 15 23 26 27 22 18 19 18 18 16 14 11 8 8 9 9 8 7 8 12 15 17 21 25 25 22 17 16 15 17 12 10 10 11
23 23 23 22 22 21 19 18 18 17 18 16 14 15 14 12 10 8 9 9 10 10 11 10 9 8 9 11 15 13 10 13 23 23 26 26 22 14 14 12 13 13 13 13 12 12 13 17 21 18 15 13 25 28 28 23 18 19 19 18 18 17 14 11 12 11 8 7 6 7 5 11 11 12 15 25 26 23 18 19 13 13 13 10 8
24 23 23 22 20 20 19 19 18 17 16 15 14 14 13 9 7 7 8 8 8 9 10 9 10 9 8 9 9 12 12 11 17 24 24 24 25 15 12 14 14 14 13 13 12 11 12 13 18 23 20 16 20 25 29 29 22 19 18 18 18 19 13 13 14 15 15 14 11 9 8 7 7 8 10 13 14 14 13 10 15 17 17 14 8
24 24 22 22 21 21 19 18 17 16 14 13 14 14 9 7 5 6 8 8 8 9 10 9 9 9 8 9 11 11 11 11 13 22 23 25 26 22 13 15 14 14 13 12 12 13 12 13 12 20 24 21 19 21 23 27 24 20 21 20 21 22 22 18 19 19 13 13 10 8 8 7 7 8 9 11 11 12 11 7 12 14 15 15 12
22 23 23 22 21 20 19 18 16 14 13 12 12 13 9 6 6 7 8 8 9 10 9 8 8 8 8 9 10 12 13 17 13 20 24 25 25 28 17 15 14 13 14 13 13 13 14 13 12 17 26 25 23 23 24 24 26 15 20 23 23 24 24 19 16 15 9 8 8 9 9 9 9 9 9 8 10 14 13 10 11 12 6 8 18
23 23 22 22 21 20 18 18 16 12 12 12 12 12 10 8 8 8 9 9 9 10 9 8 7 7 8 8 9 11 11 13 18 17 23 26 27 27 25 16 18 14 15 15 15 14 11 12 12 20 24 24 26 26 25 27 20 16 19 19 25 27 23 13 15 16 13 13 10 9 10 10 10 9 9 9 9 13 13 11 7 9 2 2 3
22 22 20 20 19 18 16 16 15 12 13 12 11 11 11 10 9 8 8 8 8 8 7 7 7 8 9 8 8 9 10 11 15 20 20 27 26 27 27 22 19 14 14 13 13 12 10 12 14 23 26 26 27 28 28 27 20 25 22 22 18 16 12 11 11 14 15 14 15 11 9 10 9 7 9 10 14 14 11 8 6 5 5 4 6
21 21 21 19 18 16 15 14 15 12 11 10 10 9 9 9 9 8 7 8 8 8 7 7 8 8 8 8 8 8 9 10 10 16 22 24 26 26 25 24 21 21 14 11 12 13 15 18 18 23 25 27 28 27 25 27 30 27 26 24 20 12 13 12 11 10 14 17 16 14 14 14 16 17 15 14 11 8 7 6 5 5 6 7 7
23 21 19 17 16 16 16 15 15 13 13 10 10 10 10 9 9 8 7 7 7 8 7 7 7 7 8 8 8 8 8 9 9 11 14 17 19 23 25 25 22 20 17 12 15 17 19 20 23 25 25 24 19 16 16 20 27 26 25 21 14 13 13 13 13 16 17 14 15 16 17 14 13 10 10 11 9 9 9 8 8 7 6 7 7
22 19 18 16 15 14 13 11 11 11 8 8 8 9 9 9 8 8 8 7 7 7 7 7 6 7 8 8 7 7 8 9 9 9 10 11 12 14 17 18 21 19 14 10 13 13 17 19 16 19 16 22 22 20 18 17 17 18 16 15 15 15 14 14 15 17 15 15 15 15 14 13 10 10 9 10 9 8 7 8 8 7 7 6 6
18 18 19 15 12 11 11 15 14 10 9 7 7 8 8 8 8 9 8 8 8 7 7 7 7 7 7 7 7 7 8 8 9 10 10 11 11 11 12 13 14 13 13 11 10 11 11 12 14 12 11 12 13 11 12 13 15 15 15 14 13 12 13 16 16 14 15 15 14 13 12 11 12 8 9 9 9 8 7 7 8 8 7 8 6
19 17 16 14 12 10 10 11 10 10 10 9 9 9 9 8 9 9 9 8 8 8 7 7 7 6 7 7 8 8 8 9 9 8 8 11 11 11 11 12 12 11 12 13 8 7 8 9 9 10 11 12 13 12 12 11 10 12 13 13 12 12 12 12 14 14 11 8 9 11 14 14 9 7 7 9 9 11 9 8 8 8 8 6 7
17 17 16 15 15 15 12 10 9 9 9 10 10 9 11 15 12 10 9 11 15 14 11 8 6 6 7 7 8 9 9 6 9 12 13 16 17 18 15 15 13 11 13 18 14 10 10 10 10 11 11 11 12 12 13 12 12 11 12 13 12 12 12 13 13 13 11 11 12 12 16 16 14 9 9 10 10 9 11 11 12 10 9 10 9
17 16 16 15 18 17 15 14 12 10 9 9 9 9 9 8 15 19 17 12 12 14 14 15 12 12 10 7 6 7 8 15 19 18 17 17 18 18 18 19 20 19 21 16 12 12 12 13 13 13 13 13 13 14 13 14 14 14 14 15 15 15 15 14 14 12 12 11 12 13 16 11 10 9 11 12 13 12 12 11 10 9 8 9 9
16 16 16 16 18 17 15 15 14 13 12 10 9 9 9 10 8 11 16 16 15 15 14 15 15 13 13 11 8 5 11 16 16 17 19 20 19 19 20 21 22 23 24 23 14 13 12 13 13 13 13 14 15 14 13 14 14 14 14 14 15 15 16 15 14 14 13 13 14 16 16 16 9 8 8 9 13 13 14 13 11 10 8 7 8
19 18 17 18 17 17 16 15 14 14 14 13 12 11 10 8 8 6 4 8 12 13 14 14 15 14 13 12 13 11 10 13 16 17 18 18 19 20 20 21 22 24 25 17 14 16 15 15 15 14 14 14 14 13 14 14 13 14 14 15 16 15 15 15 15 15 15 16 16 16 16 13 9 11 12 14 12 11 13 13 10 9 9 9 8
17 14 16 18 16 15 15 15 15 14 13 13 12 11 11 11 8 5 5 2 1 4 7 11 12 13 12 13 12 11 13 17 17 18 18 18 18 18 19 15 19 23 22 16 15 12 11 11 11 11 12 12 11 11 12 12 13 13 13 14 13 13 13 13 14 15 14 15 15 16 12 9 10 11 9 8 10 12 13 14 11 11 11 11 10
16 18 25 21 15 15 15 14 15 14 14 14 13 12 12 12 12 7 3 2 2 2 2 2 3 4 1 5 9 10 13 14 16 16 17 17 18 18 17 11 13 14 16 14 13 13 12 12 11 10 10 10 10 11 11 11 11 11 12 12 12 12 13 14 15 15 14 14 15 17 14 14 11 13 14 14 12 12 12 11 9 10 11 10 10
17 15 15 18 16 15 15 14 14 14 14 13 12 12 13 13 13 14 14 13 11 10 9 7 6 9 11 4 4 9 10 13 15 15 16 17 17 17 12 11 10 11 11 10 10 10 10 10 10 9 9 9 9 9 10 11 12 12 12 12 13 14 15 15 15 15 15 15 16 16 15 13 12 15 12 13 18 15 10 12 10 14 14 11 10
16 15 15 16 16 15 15 14 14 15 14 14 13 13 14 14 14 13 13 13 13 12 11 12 12 13 14 12 11 4 9 12 12 14 15 15 16 12 9 8 9 9 9 10 10 9 9 8 8 8 9 10 10 10 10 11 11 11 11 13 13 14 14 15 15 15 16 16 16 16 16 13 16 16 13 13 10 10 12 12 13 15 13 16 12
16 16 16 19 16 16 15 14 15 18 15 15 14 14 14 14 14 14 14 13 14 13 13 13 14 13 13 13 17 11 8 7 7 3 0 2 2 3 5 6 7 8 8 7 7 7 7 5 5 7 7 8 9 10 11 11 12 12 12 13 13 13 15 14 16 15 16 15 16 16 14 14 13 12 15 16 17 12 12 13 11 9 11 14 12
15 21 28 30 21 16 14 15 15 15 14 15 14 14 15 14 14 13 13 13 14 13 13 13 15 16 15 13 11 11 19 14 12 11 11 10 9 9 8 5 1 3 4 5 6 6 5 5 5 5 5 6 7 7 8 9 9 10 10 11 11 10 13 10 13 13 13 10 14 14 11 7 10 10 12 11 11 13 12 14 13 10 11 12 12
16 15 18 29 18 18 15 15 15 15 14 15 15 13 13 14 13 13 12 14 14 14 13 13 14 16 16 17 14 10 15 13 12 11 11 12 12 11 10 10 11 10 7 5 4 3 3 3 3 3 4 5 6 6 6 7 7 8 9 10 10 11 12 12 14 13 12 13 13 12 13 10 12 10 8 8 6 8 10 11 12 14 13 9 11
13 14 15 18 20 15 15 15 14 15 14 14 13 14 13 13 12 13 13 14 13 14 14 13 11 12 19 23 29 24 16 13 11 13 13 13 12 13 12 12 11 11 10 10 9 8 7 6 6 6 5 4 3 4 4 4 5 6 8 9 10 10 11 12 12 13 13 13 12 11 11 11 10 12 10 8 9 8 8 8 7 6 8 9 10
13 14 15 14 15 14 14 15 13 15 15 15 16 15 14 14 13 14 15 14 14 13 13 13 13 10 22 37 32 33 19 13 13 13 13 14 13 12 12 11 10 10 10 11 10 10 9 9 8 8 7 7 6 4 4 4 4 4 5 6 8 9 9 8 10 12 13 13 13 12 12 11 11 10 9 9 9 9 9 10 11 10 9 10 10
13 12 13 13 14 14 13 12 13 14 15 15 14 15 15 15 14 14 14 15 14 14 14 14 13 13 16 27 27 29 16 13 13 14 13 12 11 12 12 11 9 9 8 9 11 11 9 9 9 8 7 7 8 7 6 5 3 4 5 5 4 4 6 7 8 9 9 10 10 11 12 12 11 11 9 9 10 9 9 10 11 10 12 12 10
12 12 12 13 12 12 13 13 13 13 13 15 15 15 15 13 14 14 14 14 14 13 13 12 11 13 12 14 17 17 14 13 12 12 12 11 11 11 10 9 10 10 10 13 12 10 9 10 10 10 11 11 9 9 8 7 7 7 5 4 4 4 5 7 8 9 10 10 10 10 10 10 10 10 10 9 10 10 9 9 9 9 9 7 7
12 12 12 12 13 13 13 13 13 12 13 12 13 13 14 13 13 14 14 13 13 12 12 12 12 11 12 13 13 14 12 11 11 11 11 10 11 9 9 9 11 10 12 13 14 14 11 10 10 10 10 10 10 10 10 9 9 8 8 8 8 6 5 5 5 4 3 5 7 7 7 7 8 8 8 8 8 9 9 10 10 9 10 10 10
12 12 13 13 13 13 13 12 13 12 12 13 12 12 12 13 13 13 13 12 12 12 11 11 11 12 12 12 11 12 12 11 11 11 11 11 10 9 9 8 9 12 14 13 13 12 14 13 14 12 12 10 11 11 11 11 11 10 10 9 8 7 6 6 6 8 7 7 6 6 7 7 7 6 7 6 6 5 6 6 6 6 7 7 6
12 11 12 12 12 12 13 12 12 13 12 13 13 13 13 13 12 12 13 14 13 12 12 11 12 12 12 12 12 12 12 11 11 11 12 11 11 10 10 11 13 12 12 13 13 14 13 12 12 12 11 10 13 12 13 11 9 10 9 8 8 8 7 7 8 8 7 7 7 7 8 8 9 8 8 8 7 7 7 7 6 7 6 6 6
11 11 11 11 11 12 12 12 13 14 12 12 12 12 12 12 12 12 12 12 12 12 11 11 11 11 11 11 12 11 11 11 11 12 11 11 11 11 12 12 11 10 11 11 11 11 11 10 11 12 12 13 11 10 10 10 10 10 10 10 11 11 13 13 10 10 8 7 7 7 8 8 8 8 7 8 8 7 8 7 7 6 6 6 5
10 11 11 11 11 11 11 11 12 11 11 11 11 12 11 11 11 11 11 11 11 11 11 11 11 11 11 11 11 10 10 11 11 10 11 10 11 11 11 11 12 11 10 11 11 11 12 12 11 10 9 10 12 12 10 11 11 10 12 11 17 25 23 21 12 10 12 9 8 8 8 9 9 9 8 8 7 7 7 6 6 6 6 6 6
8 9 10 10 10 9 9 9 9 9 10 10 10 10 10 10 10 10 10 10 10 10 10 11 11 11 11 11 11 11 10 10 10 10 10 10 10 10 10 11 11 11 9 9 9 9 10 12 13 12 12 12 12 11 11 11 11 12 12 14 24 24 22 22 22 19 11 8 8 7 8 9 9 8 8 8 8 8 8 7 6 6 6 6 6
8 8 8 8 8 8 9 8 8 8 8 9 9 9 9 9 9 9 9 10 9 9 10 10 10 10 10 9 10 10 10 10 9 9 9 10 10 10 10 10 11 10 10 10 10 9 9 9 9 10 11 10 11 10 11 9 10 13 17 22 23 23 23 19 14 18 18 11 9 9 9 9 9 9 8 7 7 8 8 8 7 6 5 5 4
Wind_Direction
303 295 288 278 264 251 249 248 251 253 256 255 261 261 252 264 276 282 296 292 300 301 282 228 197 187 186 186 186 182 182 182 182 183 174 182 188 183 178 178 183 182 179 180 184 184 189 190 188 190 176 180 179 180 181 164 168 172 171 180 180 178 178 177 168 125 125 146 143 147 144 139 139 149 136 137 133 108 95 108 131 134 132 131 127
309 303 293 287 280 269 255 252 251 250 255 255 254 256 252 257 279 291 291 292 295 295 294 246 206 192 188 186 184 182 182 180 178 182 181 182 181 185 177 180 184 184 181 180 186 188 187 188 188 187 178 184 184 186 169 171 172 176 177 177 182 176 171 166 161 146 147 146 139 140 144 156 139 155 150 145 137 126 117 107 74 97 129 133 137
300 300 298 289 282 280 275 261 250 250 253 255 254 251 256 261 275 283 288 296 290 289 298 278 224 197 190 188 182 180 181 179 180 179 183 181 178 180 179 178 182 183 185 183 185 186 186 187 187 183 174 185 188 183 182 174 172 174 175 176 177 170 172 173 142 149 145 156 150 148 157 161 157 158 152 142 133 130 123 125 119 97 65 130 136
302 298 301 300 292 283 282 278 268 257 253 253 253 252 256 268 272 283 286 286 291 295 296 297 255 204 191 190 184 181 181 180 181 184 182 180 179 181 179 182 183 185 186 178 182 186 189 186 187 182 179 184 188 184 178 175 174 176 171 176 178 169 169 158 159 153 148 137 165 160 161 152 146 143 136 129 135 139 137 121 111 108 111 104 126
309 306 306 307 306 300 293 288 282 276 264 257 256 253 248 262 262 281 287 286 288 292 296 299 273 218 194 189 188 184 182 182 182 181 184 187 185 179 178 184 188 187 187 185 184 181 183 190 187 181 181 186 188 189 185 188 187 179 175 172 177 173 181 159 151 144 150 146 144 154 150 148 135 142 146 144 141 127 118 136 142 139 128 116 97
312 310 311 310 307 304 301 296 290 284 276 267 260 255 255 250 260 275 277 287 287 288 289 292 286 231 197 191 188 186 184 183 183 181 185 187 186 183 180 183 187 189 190 182 182 185 183 182 179 183 184 187 190 190 188 188 188 185 180 173 176 175 177 171 142 155 155 151 146 145 163 149 142 151 163 154 146 143 143 131 134 142 141 143 146
310 313 316 316 315 311 306 301 297 290 284 278 268 261 257 253 265 277 281 280 282 286 287 290 289 246 203 187 187 186 183 182 183 183 186 187 185 185 185 186 187 191 185 180 178 182 182 181 182 178 184 187 188 189 187 188 188 190 186 181 179 171 175 173 162 158 155 148 150 151 152 155 154 155 167 164 153 154 148 151 160 169 169 162 154
306 306 308 309 311 312 311 309 309 306 298 287 278 275 268 267 273 274 280 280 279 275 282 287 289 256 213 191 187 183 182 183 183 185 187 185 186 187 185 189 191 193 192 190 184 178 186 186 183 179 183 187 187 183 186 187 184 187 188 180 175 169 172 169 160 155 153 155 153 158 155 152 156 138 136 153 158 169 181 170 169 174 179 174 169
304 303 303 302 302 303 303 303 301 301 302 299 293 288 285 274 276 280 280 277 273 270 275 284 285 265 217 194 188 181 182 183 183 184 185 186 188 189 185 189 192 193 194 194 191 189 189 185 184 180 189 192 193 189 189 183 180 184 185 174 171 170 171 165 158 155 151 150 152 149 150 157 162 150 163 174 182 186 180 177 168 164 162 163 171
302 301 298 297 297 299 298 295 296 296 292 291 291 295 296 292 288 287 285 277 275 273 278 283 280 267 222 190 184 181 183 186 184 181 180 183 189 187 189 190 192 194 192 194 194 190 185 187 196 194 194 196 196 194 191 185 188 187 180 174 174 173 172 166 165 160 152 158 158 157 159 168 168 170 172 191 183 155 155 173 168 162 161 165 158
300 298 296 296 293 293 296 291 291 290 287 285 287 291 293 293 290 288 286 283 276 276 277 282 280 262 221 187 181 184 185 186 181 181 180 181 186 188 183 188 195 194 187 193 192 192 190 189 182 188 194 198 199 197 195 188 187 190 185 182 180 175 171 171 175 172 168 162 162 159 171 178 182 177 186 170 167 172 171 173 170 158 168 169 181
296 295 293 294 292 291 291 291 287 286 286 280 278 280 282 284 285 284 285 285 281 272 276 279 278 258 221 191 182 183 185 184 181 182 182 181 183 184 184 185 189 192 195 196 195 188 188 188 191 188 188 191 192 196 197 193 189 188 183 183 188 188 180 175 173 176 177 174 174 180 177 183 180 175 171 162 175 170 166 175 175 172 175 184 175
293 291 290 290 288 279 285 286 287 283 282 280 276 276 274 275 276 278 280 281 280 277 275 278 273 253 220 195 182 177 180 179 182 185 185 182 182 182 183 183 187 193 191 194 198 192 187 183 188 188 194 189 192 194 192 194 196 191 183 183 188 189 187 187 185 181 176 179 177 182 186 182 180 187 185 186 177 176 171 180 183 184 189 187 186
294 289 287 285 279 286 282 279 278 282 278 277 271 266 263 265 268 269 274 279 276 275 274 271 264 247 220 194 182 178 178 177 181 184 187 185 182 183 182 183 187 191 193 191 191 191 186 180 185 191 179 177 187 189 189 188 186 190 190 188 189 194 193 192 187 187 187 184 180 185 196 183 185 187 190 175 167 176 173 187 183 181 187 190 146
295 293 288 286 282 277 273 278 278 282 276 275 270 261 255 259 261 263 269 270 272 274 274 269 255 240 224 195 177 174 178 176 182 184 186 186 186 185 183 185 188 191 193 193 194 191 187 185 186 184 175 174 186 186 183 179 180 187 187 190 193 193 193 191 189 183 186 195 196 197 189 189 192 186 175 173 181 182 183 184 180 175 141 86 69
298 298 294 287 282 281 277 274 282 281 277 275 272 265 256 251 255 259 262 266 268 272 271 258 246 229 220 198 175 174 176 176 182 184 185 186 185 189 183 181 189 193 193 191 192 200 194 189 187 187 186 187 184 181 181 173 176 182 186 188 193 199 202 197 191 192 189 188 192 198 193 194 180 157 170 177 174 147 90 79 91 110 137 151 136
299 298 295 293 288 282 277 283 285 283 274 271 270 267 259 254 252 251 256 262 268 270 270 249 235 222 207 203 179 174 171 179 181 183 184 184 181 186 186 184 187 191 195 193 193 190 189 191 194 193 184 183 182 181 177 169 176 180 184 186 190 192 204 200 199 197 197 197 197 193 182 180 156 154 163 167 164 147 123 120 155 156 156 162 161
302 302 303 304 298 291 285 284 287 282 274 268 270 273 267 254 247 242 247 259 266 270 266 244 229 216 199 189 188 174 175 180 181 184 184 184 181 185 186 186 186 189 194 192 190 191 189 188 192 190 191 189 178 180 176 170 176 181 181 183 185 192 195 186 177 189 197 199 180 153 168 173 163 163 165 167 164 160 160 170 175 169 172 169 161
306 305 302 299 298 295 291 286 281 278 272 269 269 272 264 247 240 238 246 255 264 274 260 237 225 211 207 193 180 177 173 178 181 182 185 185 184 183 182 187 187 190 188 190 194 195 193 186 185 193 195 190 184 180 176 174 177 178 180 179 184 188 189 170 173 177 174 159 151 140 140 152 154 160 170 170 169 175 184 181 161 173 173 173 131
305 303 300 298 297 293 288 285 279 273 270 275 275 263 255 244 233 239 253 256 269 270 254 235 219 213 198 188 182 183 177 177 182 181 183 186 185 183 185 186 190 189 190 188 188 201 194 191 191 190 186 190 197 189 180 176 176 179 176 182 183 190 176 175 189 184 183 182 176 164 155 148 144 150 164 171 176 185 188 180 177 179 185 181 159
303 302 300 298 296 294 292 287 280 271 260 260 270 274 254 241 241 251 259 263 266 266 252 236 220 215 199 192 184 186 182 175 183 183 184 186 187 184 189 193 191 184 187 190 193 195 195 196 195 187 180 184 188 195 194 186 182 179 184 187 187 184 171 183 189 183 178 180 167 157 149 150 153 160 165 175 176 184 193 187 189 195 185 181 176
303 300 298 297 294 291 287 286 281 274 267 263 264 268 269 255 254 257 259 261 265 263 250 232 221 210 206 197 192 189 188 182 176 188 186 188 189 190 191 194 185 178 184 192 195 198 196 191 192 186 182 178 182 183 190 195 195 189 192 190 189 178 180 183 169 173 169 152 153 159 159 158 159 167 171 176 176 183 190 190 191 200 214 203 188
302 301 297 293 291 289 287 289 282 270 268 265 263 268 273 276 267 258 261 262 261 259 240 228 213 207 204 201 199 191 185 187 180 184 190 189 190 193 196 191 182 181 183 190 195 198 192 187 186 179 185 180 177 180 186 194 191 200 205 201 188 185 183 173 174 173 166 170 160 165 167 165 162 166 167 177 180 183 189 186 182 186 112 83 67
298 295 295 294 292 291 291 293 283 257 258 258 259 261 266 267 263 260 259 256 261 252 239 221 210 204 201 199 198 194 192 186 189 186 188 190 191 193 196 190 182 190 190 191 184 183 181 187 184 179 185 185 184 182 185 187 192 199 193 199 201 183 178 178 175 176 169 171 184 180 171 172 164 157 171 172 181 184 177 160 145 149 129 96 83
307 301 294 292 293 293 292 294 289 264 256 251 250 251 251 254 261 260 252 253 252 252 239 219 210 206 202 200 195 193 190 189 187 191 189 193 192 192 194 193 191 187 187 190 179 181 183 182 179 182 188 189 187 184 186 190 193 192 192 192 188 183 186 179 175 164 179 184 185 186 188 187 184 186 182 175 160 118 102 98 94 80 77 88 78
301 299 295 293 294 294 293 291 289 262 251 256 253 251 252 254 252 251 247 243 244 242 240 224 210 204 203 197 195 192 186 181 185 186 190 192 194 193 191 195 194 190 188 184 179 177 175 177 183 187 189 190 187 186 189 194 194 190 190 179 178 186 185 181 182 184 188 187 186 187 192 188 190 170 147 144 143 157 147 144 142 140 141 137 128
298 297 300 298 295 293 290 289 292 295 261 246 244 251 251 251 247 245 240 238 235 235 234 227 213 205 204 198 190 185 188 184 179 180 184 187 191 192 192 195 192 188 189 181 175 177 177 178 184 185 188 190 191 192 193 185 186 192 192 187 189 186 186 186 185 189 190 186 190 194 190 179 156 133 145 149 154 159 152 140 139 146 142 148 140
305 302 298 294 291 290 290 290 291 288 286 271 261 255 248 238 242 239 235 228 225 228 227 223 215 206 206 195 187 186 191 193 184 179 182 182 183 183 189 190 189 190 187 184 179 176 174 177 178 178 179 185 193 194 194 191 191 189 189 188 190 186 188 191 192 197 197 190 186 179 171 155 146 148 141 154 160 143 139 140 143 143 152 140 143
305 297 307 310 298 296 292 292 289 291 291 285 268 261 254 249 238 238 232 225 218 219 218 220 211 204 199 195 187 196 193 196 200 180 169 171 171 178 184 187 185 187 181 156 135 128 140 159 166 174 182 184 190 192 192 190 192 188 186 185 183 181 181 183 192 198 192 176 184 173 161 144 148 147 143 139 144 152 148 142 153 135 146 160 168
319 327 328 328 327 322 311 298 291 289 294 293 290 279 255 243 239 232 231 218 224 221 215 222 206 191 194 202 191 192 196 181 132 151 163 172 176 177 176 175 175 164 153 147 147 150 162 168 178 181 182 185 189 191 189 187 183 180 183 182 182 182 186 189 193 190 182 184 178 169 168 166 164 155 162 157 146 151 159 156 161 161 157 168 163
327 328 332 334 331 328 326 324 322 310 295 286 285 284 288 260 233 231 229 219 211 222 224 227 212 191 188 191 189 196 164 150 161 173 172 174 177 177 175 173 171 165 153 148 158 168 173 180 185 188 188 188 191 194 191 188 186 183 184 182 185 187 187 186 189 184 181 180 177 176 173 172 163 166 162 161 156 151 156 164 158 161 163 161 166
330 330 331 331 330 332 332 328 330 334 336 326 309 290 281 282 268 223 224 227 227 221 221 223 221 205 192 183 164 161 161 172 176 174 175 177 180 180 179 177 174 167 167 165 172 188 187 189 191 195 191 191 194 191 188 189 189 189 183 183 188 188 186 190 183 178 181 178 177 178 177 180 172 163 157 153 159 157 159 161 164 159 155 165 172
334 331 333 334 333 332 334 335 334 336 337 335 338 336 319 292 278 288 237 214 222 224 217 219 218 211 198 191 176 169 167 171 176 180 182 184 183 184 184 182 178 174 169 176 191 192 193 194 194 194 191 195 192 188 187 189 188 187 187 187 188 187 188 187 175 181 184 182 176 177 178 172 159 165 171 168 164 160 161 162 157 156 163 164 166
333 332 335 334 334 335 336 336 337 336 332 332 333 337 346 337 314 300 303 299 238 226 225 215 215 211 205 196 192 182 171 175 182 186 188 189 189 187 182 182 180 176 177 190 194 197 193 199 197 194 194 195 190 188 191 190 191 189 189 190 189 182 181 170 176 185 182 178 179 179 170 157 155 155 157 164 169 159 161 169 158 156 169 176 168
334 334 337 342 342 340 338 337 341 338 338 341 338 343 348 353 350 336 313 300 256 187 138 79 33 29 232 226 214 190 175 181 187 191 192 192 189 186 180 176 183 189 193 198 194 197 197 196 196 192 188 189 191 189 188 186 187 188 188 183 179 175 175 179 184 183 180 179 180 181 177 173 166 172 170 169 166 172 173 164 162 165 161 163 163
336 337 337 342 348 344 343 341 341 343 346 343 343 353 2 6 10 12 13 16 22 31 32 30 33 30 37 51 165 169 171 179 187 189 191 191 189 176 181 194 190 192 195 200 201 201 197 195 193 191 185 186 182 186 189 188 191 190 188 181 181 181 181 183 182 181 184 180 183 177 173 175 175 178 176 179 180 180 165 167 164 179 181 171 164
338 341 346 348 350 348 347 346 346 351 356 355 356 7 10 13 14 16 21 23 24 25 24 17 15 14 17 13 359 183 165 177 183 186 190 193 189 181 196 188 195 192 196 197 199 201 201 202 196 191 184 186 187 187 186 190 192 191 186 187 187 186 189 187 182 179 178 182 183 178 179 174 177 179 172 173 179 178 174 175 177 180 182 180 167
338 346 352 353 353 356 356 353 353 355 6 5 9 15 18 20 19 21 22 21 21 20 19 17 25 28 13 347 3 20 29 27 52 73 124 173 185 214 206 200 199 197 193 197 198 195 199 184 178 190 191 191 191 189 190 193 191 190 188 189 190 194 185 184 181 181 182 180 179 181 179 178 177 177 184 186 185 179 179 180 167 158 174 179 178
343 346 357 2 4 6 359 1 357 1 8 12 11 18 23 25 24 24 23 24 24 21 21 25 32 27 14 350 358 21 49 35 31 27 25 19 21 12 1 357 293 200 188 186 180 183 181 171 173 169 172 180 190 192 193 193 189 189 184 184 185 181 177 181 181 178 182 181 182 184 179 165 170 171 180 180 179 177 172 174 173 162 161 172 182
341 347 353 5 6 5 7 8 7 5 8 14 12 12 20 24 23 22 25 31 28 25 21 25 31 31 23 19 6 27 62 49 40 29 27 23 17 11 16 18 15 12 23 51 67 82 94 77 92 130 150 164 173 180 187 188 187 183 177 179 181 184 183 179 183 180 179 179 177 174 179 173 177 172 168 183 165 157 162 168 175 180 182 169 174
335 345 350 359 5 6 10 13 12 11 5 16 16 19 21 19 22 27 31 33 32 30 31 29 23 26 36 40 45 54 63 52 38 38 33 31 23 23 18 18 15 13 12 14 14 22 37 45 50 57 60 78 105 132 146 144 163 177 184 182 180 180 181 181 181 185 179 172 172 169 172 167 166 172 172 165 160 149 162 157 150 142 171 180 178
342 349 355 355 359 9 12 13 5 7 8 11 19 19 18 18 22 30 32 30 29 28 31 29 21 9 34 40 44 51 55 45 44 41 36 32 29 28 23 19 16 15 18 20 13 14 21 29 28 26 23 25 31 53 76 99 96 130 161 171 171 168 172 172 175 180 178 174 167 168 170 165 167 171 158 142 156 162 157 166 172 169 171 175 181
343 351 352 357 5 9 9 4 6 14 17 16 16 17 19 23 22 24 32 32 30 30 30 27 22 16 29 33 40 46 47 40 42 42 38 32 29 28 24 16 9 8 12 20 29 30 27 31 31 27 22 22 17 19 34 38 74 126 134 147 143 138 151 161 166 173 171 167 166 163 162 159 161 171 173 166 166 167 175 172 175 175 180 180 176
347 353 355 359 2 4 9 12 16 18 19 18 23 24 18 15 20 22 25 29 28 27 28 24 18 24 18 17 27 35 35 33 32 34 32 33 33 26 21 11 11 11 18 34 32 19 22 31 32 38 39 37 31 30 29 27 32 43 59 91 128 142 166 175 175 174 171 170 167 160 164 166 164 165 167 169 168 173 173 177 176 175 166 161 156
353 358 360 1 3 8 5 8 13 11 11 14 20 19 19 16 19 21 24 27 26 25 25 24 19 20 21 21 25 31 25 25 30 30 30 30 33 24 16 18 22 17 30 37 39 32 24 26 29 33 33 30 30 34 36 29 32 35 40 57 66 57 39 40 39 57 90 131 142 150 151 152 158 160 160 162 164 167 171 175 178 170 174 179 182
356 360 4 4 4 6 7 6 7 8 12 15 15 18 17 19 19 21 25 24 25 24 22 23 24 26 25 26 23 27 25 26 29 30 32 28 24 19 16 14 20 32 36 35 32 29 35 34 35 31 35 28 29 36 37 37 41 37 38 44 48 50 45 52 56 65 69 78 93 107 111 107 109 113 110 127 127 131 138 135 139 153 164 160 162
356 3 6 9 7 5 6 3 8 11 12 17 19 18 19 17 15 20 23 24 23 24 24 20 22 24 22 24 23 23 21 24 23 24 23 18 16 13 8 11 27 34 33 33 32 35 28 27 31 30 26 27 39 36 39 34 32 38 37 35 32 32 32 43 56 68 71 77 85 97 97 102 104 106 103 105 108 108 111 122 129 138 140 150 149
1 0 5 6 9 9 5 1 6 8 12 14 19 18 19 17 17 17 16 15 18 17 18 19 21 20 21 20 20 20 21 21 25 27 21 17 14 14 12 14 17 17 25 28 29 27 24 22 25 29 30 31 29 29 32 35 35 35 35 39 39 42 43 48 52 54 61 69 79 91 103 104 106 107 110 116 118 119 120 122 125 123 125 126 133
7 6 5 8 12 13 14 7 7 7 7 5 11 16 14 16 15 13 13 16 18 18 17 17 17 15 21 21 19 16 19 23 22 19 19 16 12 11 17 18 21 21 25 26 21 24 26 26 21 17 21 27 30 28 25 33 35 36 40 42 46 46 45 45 47 51 57 63 70 77 86 92 96 98 99 101 104 104 106 103 112 120 119 124 129
11 10 9 7 8 7 9 10 10 9 7 8 9 10 9 13 13 13 10 10 14 15 14 15 18 15 15 17 16 13 16 17 16 15 14 12 11 9 7 10 14 14 15 13 13 14 20 25 26 26 26 29 26 21 23 27 34 44 46 48 48 48 46 47 49 52 53 55 59 67 76 81 83 84 83 88 94 100 102 105 106 108 119 127 129
10 12 16 12 7 2 5 6 11 12 12 12 10 10 9 11 9 8 8 9 10 10 12 11 11 12 14 13 15 15 15 13 11 13 14 14 10 7 8 8 10 10 9 11 9 10 11 10 11 17 21 21 23 19 19 21 35 45 55 56 55 54 53 51 51 52 53 54 65 61 67 71 77 76 78 74 79 80 85 85 90 93 99 103 113